MPEC 2004-F26 : 2004 FH
The following Minor Planet Electronic Circular may be linked-to from your own Web pages, but must not otherwise be redistributed electronically.A form allowing access to any MPEC is at the bottom of this page.


M.P.E.C. 2004-F26 Issued 2004 Mar. 18, 15:14 UT The Minor Planet Electronic Circulars contain information on unusual minor planets and routine data on comets. They are published on behalf of Commission 20 of the International Astronomical Union by the Minor Planet Center, Smithsonian Astrophysical Observatory, Cambridge, MA 02138, U.S.A. Supported in part by the Steven and Michele Kirsch Foundation Prepared using the Tamkin Foundation Computer Network MPC@CFA.HARVARD.EDU URL http://cfa-www.harvard.edu/iau/mpc.html ISSN 1523-6714 2004 FH Revision to MPEC 2004-F24 Additional Observations: K04F00H C2004 03 17.40349 14 53 45.56 -06 16 34.8 16.5 EF026704 K04F00H C2004 03 17.41457 14 53 35.02 -06 17 30.9 17.2 EF026704 K04F00H C2004 03 17.42568 14 53 24.24 -06 18 27.9 16.8 EF026704 K04F00H C2004 03 17.43720 14 53 12.94 -06 19 26.9 16.8 EF026704 K04F00H C2004 03 17.44851 14 53 01.63 -06 20 24.6 17.2 EF026704 K04F00H C2004 03 17.99182 14 47 25.04 -07 39 33.2 15.3 R EF026143 K04F00H C2004 03 17.99201 14 47 24.66 -07 39 37.1 15.4 R EF026143 K04F00H C2004 03 17.99259 14 47 23.69 -07 39 45.1 15.0 R EF026143 K04F00H C2004 03 17.99289 14 47 23.20 -07 39 49.3 15.3 R EF026143 K04F00H C2004 03 17.99319 14 47 22.69 -07 39 53.6 15.4 R EF026143 K04F00H C2004 03 17.99348 14 47 22.18 -07 39 57.9 15.0 R EF026143 K04F00H C2004 03 17.99377 14 47 21.73 -07 40 01.9 14.9 R EF026143 K04F00H C2004 03 17.99406 14 47 21.25 -07 40 05.4 15.4 R EF026143 K04F00H C2004 03 17.99464 14 47 20.26 -07 40 14.1 14.8 R EF026143 K04F00H C2004 03 17.99494 14 47 19.79 -07 40 18.1 15.4 R EF026143 K04F00H C2004 03 18.05995 14 45 18.43 -07 56 14.3 15.3 R EF026204 K04F00H C2004 03 18.06111 14 45 16.02 -07 56 32.6 15.2 R EF026204 K04F00H C2004 03 18.06226 14 45 13.59 -07 56 50.7 15.1 R EF026204 K04F00H C2004 03 18.06341 14 45 11.19 -07 57 08.9 15.1 R EF026204 K04F00H 2C2004 03 18.06830 14 45 06.59 -08 00 21.2 15.6 V EF026012 K04F00H 2C2004 03 18.06882 14 45 05.55 -08 00 28.5 16.4 V EF026012 K04F00H 2C2004 03 18.06934 14 45 04.46 -08 00 38.4 15.7 V EF026012 K04F00H 2C2004 03 18.06986 14 45 03.45 -08 00 47.6 15.9 V EF026012 K04F00H 2C2004 03 18.07038 14 45 02.29 -08 00 55.3 16.1 V EF026012 K04F00H C2004 03 18.07594 14 44 31.54 -08 02 10.6 EF026557 K04F00H C2004 03 18.07850 14 44 26.04 -08 02 52.0 EF026557 K04F00H C2004 03 18.08104 14 44 20.54 -08 03 32.8 EF026557 K04F00H C2004 03 18.08359 14 44 14.97 -08 04 14.4 EF026557 K04F00H C2004 03 18.08615 14 44 09.39 -08 04 55.9 EF026557 K04F00H C2004 03 18.08876 14 44 03.60 -08 05 39.0 EF026557 K04F00H C2004 03 18.09131 14 43 57.94 -08 06 20.8 EF026557 K04F00H C2004 03 18.09394 14 43 52.10 -08 07 03.9 EF026557 K04F00H C2004 03 18.09649 14 43 46.37 -08 07 46.8 EF026557 K04F00H C2004 03 18.09904 14 43 40.60 -08 08 29.2 EF026557 K04F00H C2004 03 18.10166 14 43 34.67 -08 09 13.0 EF026557 K04F00H C2004 03 18.10420 14 43 28.88 -08 09 55.8 EF026557 K04F00H C2004 03 18.10544 14 43 37.60 -08 08 36.4 15.2 R EF026204 K04F00H C2004 03 18.10660 14 43 34.88 -08 08 55.8 14.9 R EF026204 K04F00H C2004 03 18.10774 14 43 32.17 -08 09 15.4 15.3 R EF026204 K04F00H C2004 03 18.10890 14 43 29.43 -08 09 35.0 15.1 R EF026204 K04F00H C2004 03 18.10916 14 43 17.45 -08 11 19.8 EF026557 K04F00H C2004 03 18.11170 14 43 11.54 -08 12 03.4 EF026557 K04F00H C2004 03 18.11426 14 43 05.57 -08 12 46.9 EF026557 K04F00H C2004 03 18.11681 14 42 59.61 -08 13 30.6 EF026557 K04F00H C2004 03 18.11935 14 42 53.59 -08 14 15.1 EF026557 K04F00H C2004 03 18.12191 14 42 47.55 -08 14 59.4 EF026557 K04F00H C2004 03 18.12447 14 42 41.49 -08 15 43.5 EF026557 K04F00H C2004 03 18.12701 14 42 35.34 -08 16 28.8 EF026557 K04F00H C2004 03 18.12968 14 42 28.97 -08 17 15.3 EF026557 K04F00H C2004 03 18.13222 14 42 22.82 -08 18 00.8 EF026557 K04F00H C2004 03 18.13451 14 42 17.27 -08 18 41.3 EF026557 K04F00H 1C2004 03 18.13622 14 45 17.87 -07 21 54.0 14.5 R EF026I05 K04F00H 1C2004 03 18.13660 14 45 17.14 -07 21 59.0 14.5 R EF026I05 K04F00H 1C2004 03 18.13697 14 45 16.47 -07 22 06.3 15.0 R EF026I05 K04F00H C2004 03 18.15332 14 41 30.73 -08 24 22.5 EF026557 K04F00H C2004 03 18.15586 14 41 24.32 -08 25 09.5 EF026557 K04F00H C2004 03 18.15841 14 41 17.84 -08 25 57.0 EF026557 K04F00H C2004 03 18.16097 14 41 11.32 -08 26 45.0 EF026557 K04F00H C2004 03 18.16354 14 41 04.78 -08 27 33.3 EF026557 K04F00H C2004 03 18.16609 14 40 58.26 -08 28 21.0 EF026557 K04F00H C2004 03 18.16941 14 40 49.71 -08 29 24.3 EF026557 K04F00H C2004 03 18.28142 14 40 16.24 -09 00 31.1 14.2 R EF026448 K04F00H C2004 03 18.28163 14 40 15.60 -09 00 36.8 14.1 R EF026448 K04F00H C2004 03 18.28181 14 40 14.98 -09 00 42.1 14.6 R EF026448 K04F00H C2004 03 18.28938 14 39 51.18 -09 04 19.2 14.5 R EF026448 K04F00H C2004 03 18.28976 14 39 49.90 -09 04 30.4 14.5 R EF026448 K04F00H C2004 03 18.29016 14 39 48.68 -09 04 41.7 14.6 R EF026448 K04F00H C2004 03 18.29329 14 38 59.23 -09 11 38.5 14.6 R EF026649 K04F00H C2004 03 18.29491 14 38 53.70 -09 12 25.8 14.2 R EF026649 K04F00H C2004 03 18.29651 14 38 48.12 -09 13 13.4 14.6 R EF026649 K04F00H C2004 03 18.29653 14 39 27.84 -09 07 48.0 14.5 R EF026448 K04F00H C2004 03 18.29692 14 39 26.47 -09 07 59.7 14.8 R EF026448 K04F00H C2004 03 18.29730 14 39 25.27 -09 08 10.4 14.3 R EF026448 K04F00H C2004 03 18.30019 14 38 35.30 -09 15 01.6 14.2 R EF026649 K04F00H C2004 03 18.30180 14 38 29.59 -09 15 49.5 14.7 R EF026649 K04F00H C2004 03 18.30340 14 38 23.85 -09 16 37.6 14.2 R EF026649 K04F00H C2004 03 18.37538 14 34 07.51 -09 51 33.4 14.0 R EF026H06 K04F00H C2004 03 18.37587 14 34 05.16 -09 51 51.1 13.5 R EF026H06 K04F00H C2004 03 18.38323 14 33 29.71 -09 56 25.0 13.0 R EF026H06 K04F00H C2004 03 18.38370 14 33 27.41 -09 56 42.9 14.1 R EF026H06 K04F00H C2004 03 18.38418 14 33 25.07 -09 57 00.5 13.5 R EF026H06 K04F00H C2004 03 18.38464 14 33 22.76 -09 57 18.4 13.4 R EF026H06 K04F00H C2004 03 18.38512 14 33 20.44 -09 57 36.1 13.9 R EF026H06 K04F00H C2004 03 18.38559 14 33 18.11 -09 57 54.0 13.4 R EF026H06 K04F00H C2004 03 18.38606 14 33 15.81 -09 58 11.6 13.4 R EF026H06 K04F00H C2004 03 18.38653 14 33 13.49 -09 58 29.6 13.5 R EF026H06 K04F00H C2004 03 18.38747 14 33 08.81 -09 59 05.4 13.4 R EF026H06 K04F00H C2004 03 18.38795 14 33 06.44 -09 59 23.4 14.0 R EF026H06 K04F00H C2004 03 18.42635 14 29 04.30 -10 29 54.8 13.9 R EF026H36 K04F00H C2004 03 18.42660 14 29 02.95 -10 30 04.1 13.9 R EF026H36 K04F00H C2004 03 18.42683 14 29 01.65 -10 30 13.9 14.3 R EF026H36 K04F00H C2004 03 18.47273 14 25 09.51 -10 59 55.8 13.5 R EF026926 K04F00H C2004 03 18.47303 14 25 07.49 -11 00 10.4 13.8 R EF026926 K04F00H C2004 03 18.47325 14 25 05.93 -11 00 21.8 13.5 R EF026926 K04F00H C2004 03 18.53200 14 23 35.97 -10 08 09.9 14.0 R EF026474 K04F00H C2004 03 18.53270 14 23 30.71 -10 08 46.4 14.3 R EF026474 K04F00H C2004 03 18.53346 14 23 24.84 -10 09 28.9 13.5 R EF026474 K04F00H C2004 03 18.53407 14 23 20.22 -10 10 01.9 14.1 R EF026474 K04F00H C2004 03 18.53613 14 23 04.16 -10 11 56.1 14.0 R EF026474 K04F00H C2004 03 18.53801 14 22 49.71 -10 13 39.0 13.7 R EF026474 K04F00H C2004 03 18.53858 14 22 45.24 -10 14 10.1 13.4 R EF026474 Observer details: 012 Uccle. Observer T. Pauwels. 0.85-m f/2.5 Schmidt + CCD. 143 Gnosca. Observer S. Sposetti. 0.40-m f/4 reflector + CCD. 204 Schiaparelli Observatory. Observers L. Buzzi, M. Sambo. 0.60-m f/4.64 Newtonian + CCD. 448 Desert Moon Observatory. Observer B. L. Stevens. 0.3-m Schmidt-Cassegrain + CCD. 474 Mount John Observatory, Lake Tekapo. Observers A. C. Gilmore, P. M. Kilmartin. 0.6-m f/6.4 reflector + CCD. 557 Ondrejov. Observer P. Kusnirak. 0.65-m f/3.6 reflector + CCD. 649 Powell Observatory, Louisburg. Observer R. Fredrick. 0.75-m Newtonian + CCD. 704 Lincoln Laboratory ETS, New Mexico. Observers M. Blythe, F. Shelly, M. Bezpalko, R. Huber, L. Manguso, D. Torres, R. Kracke, M. McCleary, H. Stange, A. Milner. Measurers J. Stuart, R. Sayer, J. Evans, J. Kommers. 1.0-m f/2.15 reflector + CCD. 926 Tenagra II Observatory. Observers P. R. Holvorcem, M. Schwartz. 0.81-m f/7 Ritchey-Chretien + CCD. H06 New Mexico Skies Observatory. Observer R. Hutsebaut. H36 Sandlot Observatory, Scranton. Observer G. Hug. 0.3-m Schmidt-Cassegrain + CCD. I05 Las Campanas Observatory-TIE. Observers G. Masi, F. Mallia. 0.36-m SoTIE reflector + CCD. Orbital elements: 2004 FH Epoch 2004 July 14.0 TT = JDT 2453200.5 MPC M 28.11811 (2000.0) P Q n 1.33328150 Peri. 21.69920 +0.84276516 +0.53828134 a 0.8175635 Node 305.73407 -0.49391708 +0.77308733 e 0.2889616 Incl. 0.02086 -0.21399254 +0.33554310 P 0.74 H 25.7 G 0.15 U 5 2004 FH Epoch 2004 Mar. 17.0 TT = JDT 2453081.5 MPC M 216.14293 (2000.0) P Q n 1.42999719 Peri. 338.56517 +0.91999035 +0.39193707 a 0.7802718 Node 358.35662 -0.35010044 +0.81975466 e 0.3185313 Incl. 3.51433 -0.17620285 +0.41759744 P 0.69 H 25.7 G 0.15 U 5 Residuals in seconds of arc 040316 704 0.1+ 0.2+ 040318 012 0.1+ 0.0- 040318 557 0.3+ 0.2- 040316 704 0.4- 0.2+ 040318 012 0.5+ 1.1+ 040318 448 0.5+ 0.7+ 040316 704 0.1+ 0.1- 040318 012 0.2+ 0.4- 040318 448 0.6+ 0.9+ 040316 704 0.5- 0.0+ 040318 012 1.0+ 1.2- 040318 448 0.3- 0.7+ 040317 704 0.0+ 0.1- 040318 012 0.3- 0.5- 040318 448 0.0+ 0.1+ 040317 704 0.0- 0.1+ 040318 557 0.0- 0.0+ 040318 448 0.8- 0.1- 040317 704 0.3+ 0.0+ 040318 557 0.1+ 0.2- 040318 448 0.1+ 0.2+ 040317 704 0.2- 0.3- 040318 557 0.1+ 0.1+ 040318 649 0.5- 0.1+ 040317 704 0.4+ 0.2+ 040318 557 0.1- 0.2- 040318 649 0.1- 0.1+ 040317 704 0.4+ 0.4- 040318 557 0.3+ 0.1+ 040318 649 0.9- 0.6- 040317 704 0.1- 0.1+ 040318 557 0.2- 0.3- 040318 448 0.1+ 0.1- 040317 704 0.0+ 0.1- 040318 557 0.3- 0.1- 040318 448 1.0- 0.3- 040317 704 0.2+ 0.1+ 040318 557 0.2+ 0.3+ 040318 448 0.1- 0.3+ 040317 704 0.1+ 0.0+ 040318 557 0.1+ 0.3- 040318 649 0.2- 0.1- 040317 246 2.0+ 1.4+ 040318 557 0.1- 0.2- 040318 649 0.5- 0.1- 040317 246 1.5+ 1.0+ 040318 557 0.1+ 0.1- 040318 649 1.2- 0.4- 040317 246 1.2+ 1.1+ 040318 557 0.3+ 0.2- 040318 H06 1.1+ 0.1+ 040317 246 1.1+ 0.9+ 040318 204 0.2- 0.3- 040318 H06 0.6+ 0.4+ 040317 611 0.6- 0.1- 040318 204 0.1- 0.0- 040318 H06 0.5+ 0.1+ 040317 611 0.7- 0.1+ 040318 204 0.4- 0.2- 040318 H06 0.5+ 0.2- 040317 611 0.4- 0.0- 040318 204 0.4- 0.1- 040318 H06 0.7+ 0.3+ 040317 611 0.4- 0.2- 040318 557 0.0+ 0.1- 040318 H06 0.1- 0.3- 040317 118 0.3- 0.2- 040318 557 0.2- 0.4- 040318 H06 0.5+ 0.2+ 040317 118 0.0- 0.1- 040318 557 0.2- 0.1- 040318 H06 0.3+ 0.0+ 040317 118 0.4- 0.3- 040318 557 0.0+ 0.1+ 040318 H06 0.6+ 0.2+ 040317 118 0.1- 0.1- 040318 557 0.5- 0.4- 040318 H06 0.7+ 0.0+ 040317 118 0.1- 0.0- 040318 557 0.1- 0.3- 040318 H06 0.5+ 0.1- 040317 143 1.7- 0.5- 040318 557 0.4+ 0.3+ 040318 H06 0.7+ 0.2+ 040317 143 (2.7- 1.8-) 040318 557 0.7- 0.5- 040318 H36 1.1- 0.8- 040317 143 (2.8- 1.7-) 040318 557 0.1+ 0.1+ 040318 H36 0.0- 0.6+ 040317 143 (2.7- 1.6-) 040318 557 0.1- 0.5- 040318 H36 0.1+ 0.6+ 040317 143 (2.9- 1.7-) 040318 557 0.0+ 0.2- 040318 926 0.2- 0.1+ 040317 143 (3.3- 2.0-) 040318 I05 0.4+ 0.6+ 040318 926 0.5+ 0.6+ 040317 143 (2.8- 1.9-) 040318 I05 0.2+ 1.6+ 040318 926 0.1- 0.2+ 040317 143 (2.7- 1.3-) 040318 I05 0.7+ 0.2+ 040318 474 1.0- 1.1- 040317 143 (3.0- 1.8-) 040318 557 0.2+ 0.2- 040318 474 0.2- 0.4+ 040317 143 (2.5- 1.6-) 040318 557 0.1+ 0.2- 040318 474 1.3- 0.7- 040318 204 0.7- 0.2- 040318 557 0.2- 0.3- 040318 474 0.5- 0.4- 040318 204 0.5- 0.3- 040318 557 0.4- 0.4- 040318 474 (2.8- 1.4-) 040318 204 0.9- 0.3- 040318 557 0.0- 0.4- 040318 474 0.6+ 0.1- 040318 204 0.6- 0.4- 040318 557 0.3+ 0.1+ 040318 474 0.9+ 0.6+ 2004 FH will approach the earth to 0.00033 AU on March 18.92 UT. Gareth V. Williams (C) Copyright 2004 MPC M.P.E.C. 2004-F26


Enter an MPEC number in one of the following forms:
- 1997-B01 (the full form)
- J97B01 (the packed version of the full form)
- B01 (the abbreviated form)